UAE371 VVDN-VTBS

Flight info

Callsign UAE371
Flight time 1h 17m
Altitude 36000
Route PAPRA2G PAPRA/N0478F360 A1 UBL Y20 GRASO Y13 RUKSA EASTE1C
Aircraft B77W/H-SDE1E2E3FGHIJ2J3J4J5M1RWXY/LB1D1

Departure

Time 2026-04-19 04:47
Airport Da Nang International Airport (VVDN)

Arrival

Time 2026-04-19 06:05
Airport Suvarnabhumi Airport (VTBS)
Time Latitude Longitude Altitude Speed Heading
2026-04-19 04:27 16.05872 108.20041 39 ft 0 kts 81°
2026-04-19 04:37 16.05872 108.20039 39 ft 1 kts 81°
2026-04-19 04:37 16.05870 108.20021 37 ft 3 kts 81°
2026-04-19 04:38 16.05867 108.20000 37 ft 3 kts 81°
2026-04-19 04:38 16.05865 108.19980 38 ft 3 kts 105°
2026-04-19 04:38 16.05869 108.19971 36 ft 2 kts 172°
2026-04-19 04:38 16.05881 108.19969 37 ft 3 kts 174°
2026-04-19 04:39 16.05901 108.19967 35 ft 3 kts 174°
2026-04-19 04:39 16.05909 108.19966 36 ft 0 kts 174°
2026-04-19 04:41 16.05896 108.19967 39 ft 4 kts 173°
2026-04-19 04:41 16.05861 108.19972 37 ft 7 kts 173°
2026-04-19 04:42 16.05804 108.19979 39 ft 10 kts 173°
2026-04-19 04:42 16.05727 108.19989 39 ft 12 kts 172°
2026-04-19 04:42 16.05633 108.20002 39 ft 15 kts 172°
2026-04-19 04:42 16.05523 108.20018 39 ft 17 kts 172°
2026-04-19 04:43 16.05398 108.20036 39 ft 19 kts 172°
2026-04-19 04:43 16.05283 108.20052 39 ft 15 kts 173°
2026-04-19 04:43 16.05173 108.20068 39 ft 17 kts 172°
2026-04-19 04:43 16.05050 108.20086 39 ft 19 kts 171°
2026-04-19 04:44 16.04917 108.20106 38 ft 19 kts 172°
2026-04-19 04:44 16.04783 108.20127 38 ft 19 kts 173°
2026-04-19 04:44 16.04650 108.20145 38 ft 19 kts 172°
2026-04-19 04:44 16.04516 108.20164 38 ft 20 kts 172°
2026-04-19 04:45 16.04379 108.20185 38 ft 20 kts 172°
2026-04-19 04:45 16.04243 108.20205 39 ft 20 kts 172°
2026-04-19 04:45 16.04106 108.20224 39 ft 20 kts 172°
2026-04-19 04:45 16.03969 108.20243 39 ft 20 kts 172°
2026-04-19 04:46 16.03857 108.20253 40 ft 10 kts 194°
2026-04-19 04:46 16.03821 108.20193 40 ft 11 kts 255°
2026-04-19 04:46 16.03827 108.20130 40 ft 8 kts 320°
2026-04-19 04:46 16.03988 108.20100 38 ft 55 kts 352°
2026-04-19 04:47 16.04737 108.19991 38 ft 161 kts 352°
2026-04-19 04:47 16.06101 108.19788 405 ft 217 kts 355°
2026-04-19 04:47 16.07552 108.19575 1715 ft 202 kts 353°
2026-04-19 04:47 16.08864 108.19359 3277 ft 182 kts 351°
2026-04-19 04:48 16.10145 108.19152 4125 ft 195 kts 352°
2026-04-19 04:48 16.11592 108.18925 4420 ft 226 kts 352°
2026-04-19 04:48 16.13266 108.18662 4684 ft 262 kts 352°
2026-04-19 04:48 16.15137 108.18371 5350 ft 278 kts 352°
2026-04-19 04:49 16.17069 108.18077 6346 ft 280 kts 355°
2026-04-19 04:49 16.19001 108.18268 7154 ft 284 kts 23°
2026-04-19 04:49 16.20599 108.19438 8128 ft 283 kts 51°
2026-04-19 04:49 16.21527 108.21226 9138 ft 283 kts 76°
2026-04-19 04:50 16.21637 108.23272 10071 ft 288 kts 100°
2026-04-19 04:50 16.20895 108.25258 10682 ft 307 kts 122°
2026-04-19 04:50 16.19373 108.26959 10912 ft 339 kts 143°
2026-04-19 04:50 16.17180 108.28086 11201 ft 366 kts 165°
2026-04-19 04:51 16.14602 108.28308 11961 ft 379 kts 185°
2026-04-19 04:51 16.12044 108.27607 12889 ft 385 kts 205°
2026-04-19 04:51 16.09797 108.26091 13925 ft 387 kts 223°
2026-04-19 04:51 16.08056 108.23946 14841 ft 390 kts 235°
2026-04-19 04:52 16.06493 108.21657 15690 ft 396 kts 235°
2026-04-19 04:52 16.05036 108.19226 16401 ft 400 kts 246°
2026-04-19 04:52 16.04204 108.16462 17016 ft 404 kts 256°
2026-04-19 04:52 16.03473 108.13611 17761 ft 411 kts 255°
2026-04-19 04:53 16.02719 108.10732 18601 ft 414 kts 255°
2026-04-19 04:53 16.01949 108.07847 19460 ft 415 kts 255°
2026-04-19 04:53 16.01161 108.04944 20139 ft 421 kts 255°
2026-04-19 04:53 16.00352 108.01992 20784 ft 427 kts 255°
2026-04-19 04:54 15.99531 107.99015 21557 ft 430 kts 255°
2026-04-19 04:54 15.98702 107.96020 22326 ft 433 kts 255°
2026-04-19 04:54 15.97862 107.92990 22937 ft 440 kts 255°
2026-04-19 04:54 15.97009 107.89911 23508 ft 446 kts 255°
2026-04-19 04:55 15.96148 107.86808 24130 ft 448 kts 256°
2026-04-19 04:55 15.95280 107.83684 24735 ft 451 kts 255°
2026-04-19 04:55 15.94406 107.80534 25228 ft 456 kts 256°
2026-04-19 04:55 15.93520 107.77343 25692 ft 463 kts 255°
2026-04-19 04:56 15.92622 107.74114 26185 ft 467 kts 255°
2026-04-19 04:56 15.91716 107.70853 26709 ft 471 kts 255°
2026-04-19 04:56 15.90802 107.67571 27262 ft 475 kts 255°
2026-04-19 04:56 15.89878 107.64266 27793 ft 478 kts 255°
2026-04-19 04:57 15.88933 107.60941 28309 ft 482 kts 255°
2026-04-19 04:57 15.87971 107.57584 28802 ft 486 kts 255°
2026-04-19 04:57 15.87003 107.54212 29280 ft 489 kts 255°
2026-04-19 04:57 15.86028 107.50813 29745 ft 492 kts 255°
2026-04-19 04:58 15.85047 107.47389 30161 ft 496 kts 255°
2026-04-19 04:58 15.84063 107.43956 30613 ft 496 kts 255°
2026-04-19 04:58 15.83096 107.40581 31260 ft 491 kts 255°
2026-04-19 04:58 15.82128 107.37207 31980 ft 485 kts 255°
2026-04-19 04:59 15.81169 107.33863 32657 ft 481 kts 255°
2026-04-19 04:59 15.80218 107.30551 33302 ft 477 kts 255°
2026-04-19 04:59 15.79274 107.27262 33930 ft 474 kts 255°
2026-04-19 04:59 15.78336 107.23994 34439 ft 471 kts 255°
2026-04-19 05:00 15.77401 107.20740 34907 ft 469 kts 255°
2026-04-19 05:00 15.76484 107.17499 35339 ft 467 kts 256°
2026-04-19 05:00 15.75688 107.14233 35790 ft 465 kts 258°
2026-04-19 05:00 15.74976 107.10950 35935 ft 468 kts 259°
2026-04-19 05:01 15.73624 107.04365 35918 ft 465 kts 259°
2026-04-19 05:01 15.72280 106.97940 35930 ft 465 kts 259°
2026-04-19 05:02 15.70872 106.91388 35946 ft 466 kts 259°
2026-04-19 05:02 15.69443 106.84819 35935 ft 467 kts 259°
2026-04-19 05:03 15.68010 106.78252 35916 ft 467 kts 259°
2026-04-19 05:03 15.66575 106.71683 35910 ft 467 kts 259°
2026-04-19 05:04 15.65139 106.65106 35909 ft 468 kts 259°
2026-04-19 05:04 15.63698 106.58517 35921 ft 468 kts 259°
2026-04-19 05:05 15.62254 106.51928 35921 ft 469 kts 259°
2026-04-19 05:05 15.60817 106.45377 35922 ft 469 kts 259°
2026-04-19 05:06 15.59367 106.38781 35912 ft 469 kts 259°
2026-04-19 05:06 15.57917 106.32190 35924 ft 469 kts 258°
2026-04-19 05:07 15.56462 106.25589 35932 ft 470 kts 258°
2026-04-19 05:07 15.55002 106.18975 35928 ft 471 kts 258°
2026-04-19 05:08 15.52805 106.09040 35930 ft 472 kts 258°
2026-04-19 05:09 15.51335 106.02405 35924 ft 472 kts 258°
2026-04-19 05:09 15.49888 105.95887 35921 ft 472 kts 259°
2026-04-19 05:10 15.48414 105.89252 35920 ft 472 kts 259°
2026-04-19 05:10 15.46937 105.82617 35911 ft 472 kts 259°
2026-04-19 05:11 15.45461 105.75994 35915 ft 472 kts 258°
2026-04-19 05:11 15.43982 105.69363 35911 ft 472 kts 258°
2026-04-19 05:12 15.42753 105.63861 35910 ft 472 kts 259°
2026-04-19 05:12 15.41262 105.57231 35910 ft 473 kts 258°
2026-04-19 05:13 15.39719 105.50606 35904 ft 473 kts 258°
2026-04-19 05:13 15.38170 105.43975 35915 ft 474 kts 258°
2026-04-19 05:14 15.36623 105.37333 35908 ft 474 kts 258°
2026-04-19 05:14 15.35056 105.30697 35902 ft 474 kts 258°
2026-04-19 05:15 15.33468 105.24059 35904 ft 474 kts 258°
2026-04-19 05:15 15.31882 105.17428 35906 ft 474 kts 258°
2026-04-19 05:16 15.30296 105.10790 35908 ft 475 kts 258°
2026-04-19 05:16 15.28708 105.04149 35899 ft 475 kts 258°
2026-04-19 05:17 15.27145 104.97626 35891 ft 475 kts 258°
2026-04-19 05:17 15.25553 104.90988 35889 ft 475 kts 258°
2026-04-19 05:18 15.24245 104.84358 35874 ft 472 kts 266°
2026-04-19 05:18 15.23705 104.77539 35887 ft 471 kts 267°
2026-04-19 05:19 15.23211 104.70816 35886 ft 471 kts 267°
2026-04-19 05:19 15.22678 104.64053 35887 ft 471 kts 267°
2026-04-19 05:20 15.22125 104.57290 35893 ft 471 kts 266°
2026-04-19 05:20 15.21570 104.50530 35895 ft 471 kts 266°
2026-04-19 05:21 15.21015 104.43771 35898 ft 471 kts 266°
2026-04-19 05:21 15.20458 104.37013 35895 ft 471 kts 266°
2026-04-19 05:22 15.19894 104.30246 35880 ft 471 kts 266°
2026-04-19 05:22 15.19324 104.23491 35889 ft 471 kts 266°
2026-04-19 05:23 15.18754 104.16764 35891 ft 471 kts 267°
2026-04-19 05:23 15.18181 104.10005 35891 ft 471 kts 267°
2026-04-19 05:24 15.17606 104.03253 35881 ft 471 kts 267°
2026-04-19 05:24 15.17040 103.96625 35890 ft 471 kts 267°
2026-04-19 05:25 15.16462 103.89879 35889 ft 471 kts 267°
2026-04-19 05:25 15.15883 103.83135 35884 ft 470 kts 267°
2026-04-19 05:26 15.14803 103.76447 35882 ft 473 kts 257°
2026-04-19 05:26 15.12754 103.69957 35891 ft 474 kts 253°
2026-04-19 05:27 15.10605 103.63499 35883 ft 475 kts 253°
2026-04-19 05:27 15.08483 103.57033 35883 ft 475 kts 254°
2026-04-19 05:28 15.06378 103.50555 35885 ft 474 kts 254°
2026-04-19 05:28 15.04274 103.44072 35877 ft 475 kts 255°
2026-04-19 05:29 15.02168 103.37584 35883 ft 476 kts 254°
2026-04-19 05:29 15.00068 103.31128 35879 ft 477 kts 254°
2026-04-19 05:30 14.97954 103.24639 35878 ft 477 kts 254°
2026-04-19 05:30 14.95833 103.18135 35875 ft 477 kts 254°
2026-04-19 05:31 14.93707 103.11624 35866 ft 477 kts 254°
2026-04-19 05:31 14.91586 103.05132 35867 ft 476 kts 254°
2026-04-19 05:32 14.89502 102.98760 35864 ft 476 kts 254°
2026-04-19 05:32 14.87382 102.92284 35868 ft 475 kts 254°
2026-04-19 05:33 14.85308 102.85805 35873 ft 475 kts 255°
2026-04-19 05:33 14.83329 102.79298 35866 ft 474 kts 256°
2026-04-19 05:34 14.81355 102.72790 35872 ft 474 kts 256°
2026-04-19 05:34 14.79368 102.66296 35867 ft 474 kts 256°
2026-04-19 05:35 14.77375 102.59813 35870 ft 473 kts 256°
2026-04-19 05:35 14.75393 102.53375 35865 ft 473 kts 256°
2026-04-19 05:36 14.73398 102.46900 35874 ft 473 kts 256°
2026-04-19 05:36 14.71401 102.40427 35857 ft 473 kts 256°
2026-04-19 05:37 14.69404 102.33960 35867 ft 472 kts 256°
2026-04-19 05:37 14.67408 102.27499 35417 ft 475 kts 256°
2026-04-19 05:37 14.66405 102.24258 34967 ft 471 kts 256°
2026-04-19 05:38 14.65410 102.21045 34452 ft 467 kts 256°
2026-04-19 05:38 14.64421 102.17855 33932 ft 464 kts 255°
2026-04-19 05:38 14.63441 102.14692 33332 ft 462 kts 255°
2026-04-19 05:38 14.62465 102.11543 32797 ft 458 kts 255°
2026-04-19 05:39 14.61498 102.08425 32265 ft 455 kts 255°
2026-04-19 05:39 14.60537 102.05325 31746 ft 451 kts 255°
2026-04-19 05:39 14.59583 102.02251 31237 ft 448 kts 255°
2026-04-19 05:39 14.58673 101.99316 30762 ft 446 kts 255°
2026-04-19 05:40 14.57729 101.96277 30232 ft 443 kts 254°
2026-04-19 05:40 14.56788 101.93253 29678 ft 441 kts 254°
2026-04-19 05:40 14.55803 101.90265 29108 ft 439 kts 251°
2026-04-19 05:40 14.54681 101.87343 28577 ft 436 kts 249°
2026-04-19 05:41 14.53505 101.84471 28059 ft 433 kts 249°
2026-04-19 05:41 14.52324 101.81630 27549 ft 430 kts 249°
2026-04-19 05:41 14.51156 101.78805 27041 ft 427 kts 249°
2026-04-19 05:41 14.50007 101.75992 26548 ft 424 kts 249°
2026-04-19 05:42 14.48873 101.73191 26054 ft 421 kts 249°
2026-04-19 05:42 14.47754 101.70409 25567 ft 419 kts 249°
2026-04-19 05:42 14.46644 101.67642 25036 ft 411 kts 249°
2026-04-19 05:42 14.45565 101.64953 24572 ft 404 kts 249°
2026-04-19 05:43 14.44507 101.62312 24095 ft 404 kts 249°
2026-04-19 05:43 14.43437 101.59641 23618 ft 401 kts 249°
2026-04-19 05:43 14.42394 101.57043 23090 ft 387 kts 249°
2026-04-19 05:43 14.41368 101.54488 22613 ft 386 kts 249°
2026-04-19 05:44 14.40343 101.51934 22147 ft 384 kts 249°
2026-04-19 05:44 14.39322 101.49393 21694 ft 383 kts 249°
2026-04-19 05:44 14.38304 101.46860 21236 ft 381 kts 248°
2026-04-19 05:44 14.37291 101.44337 20777 ft 380 kts 249°
2026-04-19 05:45 14.36279 101.41821 20325 ft 380 kts 248°
2026-04-19 05:45 14.35269 101.39312 19856 ft 379 kts 249°
2026-04-19 05:45 14.34261 101.36805 19417 ft 378 kts 249°
2026-04-19 05:45 14.33263 101.34328 18931 ft 365 kts 248°
2026-04-19 05:46 14.32293 101.31919 18517 ft 363 kts 248°
2026-04-19 05:46 14.31296 101.29535 18043 ft 361 kts 243°
2026-04-19 05:46 14.29779 101.27494 17658 ft 359 kts 222°
2026-04-19 05:46 14.27844 101.25868 17373 ft 361 kts 219°
2026-04-19 05:47 14.25869 101.24241 17059 ft 366 kts 219°
2026-04-19 05:47 14.23884 101.22585 16743 ft 367 kts 219°
2026-04-19 05:47 14.21912 101.20917 16421 ft 366 kts 220°
2026-04-19 05:47 14.19951 101.19249 16103 ft 365 kts 220°
2026-04-19 05:48 14.18002 101.17588 15802 ft 363 kts 220°
2026-04-19 05:48 14.16065 101.15939 15491 ft 359 kts 220°
2026-04-19 05:48 14.14148 101.14306 15180 ft 355 kts 219°
2026-04-19 05:48 14.12258 101.12697 14895 ft 351 kts 219°
2026-04-19 05:49 14.10387 101.11105 14601 ft 347 kts 219°
2026-04-19 05:49 14.08539 101.09534 14304 ft 342 kts 219°
2026-04-19 05:49 14.06713 101.07988 14022 ft 335 kts 218°
2026-04-19 05:49 14.04722 101.06818 13704 ft 329 kts 198°
2026-04-19 05:50 14.02528 101.06240 13395 ft 324 kts 193°
2026-04-19 05:50 14.00351 101.05691 13067 ft 320 kts 194°
2026-04-19 05:50 13.98248 101.05131 12761 ft 317 kts 194°
2026-04-19 05:50 13.96092 101.04544 12442 ft 313 kts 194°
2026-04-19 05:51 13.93996 101.03969 12160 ft 310 kts 194°
2026-04-19 05:51 13.91933 101.03403 11974 ft 304 kts 194°
2026-04-19 05:51 13.89920 101.02850 11704 ft 303 kts 194°
2026-04-19 05:51 13.87856 101.02284 11417 ft 302 kts 194°
2026-04-19 05:52 13.85825 101.01726 11148 ft 302 kts 194°
2026-04-19 05:52 13.83879 101.01052 10836 ft 299 kts 209°
2026-04-19 05:52 13.82369 100.99679 10595 ft 301 kts 235°
2026-04-19 05:52 13.81548 100.97736 10322 ft 305 kts 259°
2026-04-19 05:53 13.81526 100.95580 10027 ft 301 kts 282°
2026-04-19 05:53 13.82044 100.93513 9748 ft 297 kts 287°
2026-04-19 05:53 13.82901 100.91620 9424 ft 292 kts 310°
2026-04-19 05:53 13.84444 100.90318 9145 ft 286 kts 336°
2026-04-19 05:54 13.86334 100.89764 8884 ft 281 kts 356°
2026-04-19 05:54 13.88255 100.89869 8570 ft 270 kts 13°
2026-04-19 05:54 13.90049 100.90337 8304 ft 267 kts 17°
2026-04-19 05:54 13.91869 100.90885 8051 ft 277 kts 17°
2026-04-19 05:55 13.93736 100.91438 7787 ft 280 kts 16°
2026-04-19 05:55 13.95608 100.91976 7509 ft 278 kts 15°
2026-04-19 05:55 13.97465 100.92498 7256 ft 275 kts 15°
2026-04-19 05:55 13.99295 100.93009 6900 ft 272 kts 15°
2026-04-19 05:56 14.01125 100.93261 6671 ft 262 kts 351°
2026-04-19 05:56 14.02773 100.92592 6458 ft 253 kts 321°
2026-04-19 05:56 14.03884 100.91240 6253 ft 246 kts 295°
2026-04-19 05:56 14.04362 100.89578 6035 ft 240 kts 275°
2026-04-19 05:57 14.04289 100.87927 5806 ft 227 kts 253°
2026-04-19 05:57 14.03752 100.86375 5621 ft 234 kts 247°
2026-04-19 05:57 14.03133 100.84806 5361 ft 238 kts 247°
2026-04-19 05:57 14.02270 100.83374 5105 ft 236 kts 221°
2026-04-19 05:58 14.01367 100.82784 4985 ft 232 kts 205°
2026-04-19 05:58 13.99820 100.82193 4780 ft 240 kts 198°
2026-04-19 05:58 13.98226 100.81716 4516 ft 234 kts 196°
2026-04-19 05:58 13.96713 100.81288 4284 ft 219 kts 195°
2026-04-19 05:59 13.95239 100.80891 4099 ft 218 kts 195°
2026-04-19 05:59 13.93779 100.80480 3909 ft 216 kts 195°
2026-04-19 05:59 13.92336 100.80090 3714 ft 214 kts 195°
2026-04-19 05:59 13.90896 100.79731 3494 ft 211 kts 194°
2026-04-19 06:00 13.89485 100.79373 3306 ft 206 kts 195°
2026-04-19 06:00 13.88111 100.79010 3133 ft 201 kts 194°
2026-04-19 06:00 13.86763 100.78653 2906 ft 196 kts 194°
2026-04-19 06:00 13.85434 100.78300 2726 ft 202 kts 194°
2026-04-19 06:01 13.84056 100.77936 2620 ft 201 kts 195°
2026-04-19 06:01 13.82723 100.77584 2381 ft 195 kts 194°
2026-04-19 06:01 13.81474 100.77260 2142 ft 176 kts 193°
2026-04-19 06:01 13.80318 100.76963 1942 ft 170 kts 195°
2026-04-19 06:02 13.79175 100.76651 1713 ft 166 kts 196°
2026-04-19 06:02 13.78116 100.76368 1528 ft 147 kts 197°
2026-04-19 06:02 13.77166 100.76117 1314 ft 135 kts 195°
2026-04-19 06:02 13.76234 100.75871 1201 ft 144 kts 198°
2026-04-19 06:03 13.75277 100.75618 994 ft 136 kts 197°
2026-04-19 06:03 13.74366 100.75376 887 ft 140 kts 195°
2026-04-19 06:03 13.73395 100.75121 653 ft 143 kts 196°
2026-04-19 06:03 13.72457 100.74873 472 ft 137 kts 194°
2026-04-19 06:04 13.71530 100.74629 286 ft 137 kts 194°
2026-04-19 06:04 13.70630 100.74390 100 ft 133 kts 194°
2026-04-19 06:04 13.69742 100.74156 21 ft 124 kts 194°
2026-04-19 06:04 13.69043 100.73971 19 ft 82 kts 194°
2026-04-19 06:05 13.68620 100.73859 21 ft 47 kts 194°
2026-04-19 06:05 13.68366 100.73837 18 ft 26 kts 170°
2026-04-19 06:05 13.68257 100.73864 18 ft 10 kts 161°
2026-04-19 06:05 13.68220 100.73903 18 ft 6 kts 107°
2026-04-19 06:06 13.68238 100.73944 19 ft 7 kts 36°
2026-04-19 06:06 13.68292 100.73964 18 ft 9 kts 15°
2026-04-19 06:06 13.68361 100.73983 18 ft 12 kts 14°
2026-04-19 06:06 13.68447 100.74006 19 ft 14 kts 19°
2026-04-19 06:07 13.68493 100.74086 18 ft 14 kts 67°
2026-04-19 06:07 13.68568 100.74152 18 ft 15 kts 51°
2026-04-19 06:07 13.68566 100.74257 18 ft 16 kts 104°
2026-04-19 06:07 13.68538 100.74370 18 ft 13 kts 104°
2026-04-19 06:08 13.68512 100.74472 18 ft 16 kts 104°
2026-04-19 06:08 13.68483 100.74589 18 ft 18 kts 104°
2026-04-19 06:08 13.68457 100.74693 18 ft 6 kts 104°
2026-04-19 06:08 13.68436 100.74735 18 ft 5 kts 144°
2026-04-19 06:09 13.68410 100.74731 18 ft 5 kts 194°
2026-04-19 06:09 13.68371 100.74721 18 ft 4 kts 194°
2026-04-19 06:09 13.68356 100.74716 18 ft 1 kts 194°
2026-04-19 06:09 13.68354 100.74716 18 ft 0 kts 194°